TimeCST,TemperatureF,Dew PointF,Humidity,Sea Level PressureIn,VisibilityMPH,Wind Direction,Wind SpeedMPH,Gust SpeedMPH,PrecipitationIn,Events,Conditions,WindDirDegrees,DateUTC
12:15 AM,-16.6,-25.1,65,30.15,10.0,West,9.2,-,N/A,,Clear,270,2014-01-28 06:15:00
12:35 AM,-17.1,-24.9,68,30.16,10.0,West,6.9,-,N/A,,Clear,270,2014-01-28 06:35:00
12:55 AM,-17.5,-25.1,68,30.15,10.0,West,4.6,-,N/A,,Clear,270,2014-01-28 06:55:00
1:15 AM,-17.5,-24.9,69,30.15,10.0,West,8.1,-,N/A,,Clear,270,2014-01-28 07:15:00
1:35 AM,-17.9,-25.2,69,30.14,10.0,Calm,Calm,-,N/A,,Clear,0,2014-01-28 07:35:00
1:55 AM,-18.4,-25.6,70,30.14,10.0,West,5.8,-,N/A,,Clear,270,2014-01-28 07:55:00
2:15 AM,-18.4,-25.2,71,30.14,10.0,Calm,Calm,-,N/A,,Clear,0,2014-01-28 08:15:00
2:35 AM,-18.4,-25.2,71,30.14,10.0,Calm,Calm,-,N/A,,Clear,0,2014-01-28 08:35:00
2:55 AM,-18.8,-25.6,71,30.14,10.0,Calm,Calm,-,N/A,,Clear,0,2014-01-28 08:55:00
3:15 AM,-18.8,-25.4,72,30.14,10.0,Calm,Calm,-,N/A,,Clear,0,2014-01-28 09:15:00
3:35 AM,-19.1,-25.6,72,30.14,10.0,Calm,Calm,-,N/A,,Clear,0,2014-01-28 09:35:00
3:55 AM,-18.9,-25.6,72,30.13,10.0,West,3.5,-,N/A,,Clear,260,2014-01-28 09:55:00
4:15 AM,-19.3,-26.0,71,30.12,10.0,Calm,Calm,-,N/A,,Clear,0,2014-01-28 10:15:00
4:35 AM,-19.5,-26.0,72,30.12,10.0,Calm,Calm,-,N/A,,Clear,0,2014-01-28 10:35:00
4:55 AM,-19.5,-25.8,73,30.12,10.0,Calm,Calm,-,N/A,,Clear,0,2014-01-28 10:55:00
5:15 AM,-19.8,-26.0,73,30.12,10.0,West,6.9,-,N/A,,Clear,260,2014-01-28 11:15:00
5:35 AM,-19.8,-26.0,73,30.12,10.0,West,6.9,-,N/A,,Clear,270,2014-01-28 11:35:00
5:55 AM,-20.2,-26.3,73,30.12,10.0,West,3.5,-,N/A,,Clear,260,2014-01-28 11:55:00
6:15 AM,-20.4,-26.5,73,30.11,10.0,West,3.5,-,N/A,,Clear,260,2014-01-28 12:15:00
6:35 AM,-20.4,-26.7,73,30.11,10.0,Calm,Calm,-,N/A,,Clear,0,2014-01-28 12:35:00
6:55 AM,-20.7,-26.7,74,30.11,10.0,West,4.6,-,N/A,,Clear,260,2014-01-28 12:55:00
7:15 AM,-20.7,-26.7,74,30.11,10.0,Calm,Calm,-,N/A,,Clear,0,2014-01-28 13:15:00
7:35 AM,-20.7,-26.7,74,30.11,10.0,Calm,Calm,-,N/A,,Clear,0,2014-01-28 13:35:00
7:55 AM,-20.7,-26.7,74,30.10,10.0,Calm,Calm,-,N/A,,Clear,0,2014-01-28 13:55:00
8:15 AM,-20.0,-26.3,73,30.11,10.0,Calm,Calm,-,N/A,,Clear,0,2014-01-28 14:15:00
8:35 AM,-18.9,-25.6,72,30.11,10.0,Calm,Calm,-,N/A,,Clear,0,2014-01-28 14:35:00
8:55 AM,-17.3,-24.7,69,30.11,10.0,West,4.6,-,N/A,,Clear,260,2014-01-28 14:55:00
9:15 AM,-16.1,-24.0,67,30.11,10.0,West,6.9,-,N/A,,Clear,260,2014-01-28 15:15:00
9:35 AM,-14.8,-23.1,66,30.11,10.0,West,12.7,19.6,N/A,,Clear,270,2014-01-28 15:35:00
9:55 AM,-13.7,-22.9,64,30.11,10.0,West,11.5,16.1,N/A,,Clear,270,2014-01-28 15:55:00
10:15 AM,-12.1,-22.2,61,30.10,10.0,West,9.2,-,N/A,,Clear,260,2014-01-28 16:15:00
10:35 AM,-11.2,-21.6,60,30.10,10.0,West,10.4,20.7,N/A,,Clear,260,2014-01-28 16:35:00
10:55 AM,-9.8,-20.6,59,30.09,10.0,West,8.1,17.3,N/A,,Clear,270,2014-01-28 16:55:00
11:15 AM,-8.5,-19.7,58,30.08,10.0,West,10.4,16.1,N/A,,Clear,270,2014-01-28 17:15:00
11:35 AM,-7.6,-19.3,57,30.07,10.0,West,9.2,-,N/A,,Clear,270,2014-01-28 17:35:00
11:55 AM,-6.7,-18.9,55,30.06,10.0,West,9.2,18.4,N/A,,Clear,260,2014-01-28 17:55:00
12:15 PM,-5.8,-18.6,54,30.04,10.0,West,15.0,19.6,N/A,,Clear,270,2014-01-28 18:15:00
12:35 PM,-4.4,-18.0,52,30.03,10.0,WSW,10.4,17.3,N/A,,Clear,250,2014-01-28 18:35:00
12:55 PM,-3.8,-17.7,52,30.02,10.0,West,9.2,17.3,N/A,,Clear,260,2014-01-28 18:55:00
1:15 PM,-3.3,-17.3,51,30.01,10.0,WSW,6.9,19.6,N/A,,Clear,250,2014-01-28 19:15:00
1:35 PM,-3.3,-17.1,52,30.00,10.0,WSW,8.1,16.1,N/A,,Clear,240,2014-01-28 19:35:00
1:55 PM,-3.5,-17.5,51,30.00,10.0,West,9.2,20.7,N/A,,Clear,260,2014-01-28 19:55:00
2:15 PM,-2.9,-16.6,52,30.00,7.0,West,13.8,19.6,N/A,,Clear,270,2014-01-28 20:15:00
2:35 PM,-2.9,-16.8,52,29.99,10.0,West,8.1,16.1,N/A,,Clear,260,2014-01-28 20:35:00
2:55 PM,-2.9,-17.1,51,29.98,10.0,WSW,4.6,17.3,N/A,,Clear,250,2014-01-28 20:55:00
3:15 PM,-2.4,-16.8,50,29.98,10.0,West,10.4,17.3,N/A,,Clear,260,2014-01-28 21:15:00
3:35 PM,-2.7,-17.1,50,29.98,10.0,WSW,10.4,19.6,N/A,,Scattered Clouds,250,2014-01-28 21:35:00
3:55 PM,-3.1,-16.4,53,29.98,10.0,Calm,Calm,-,N/A,,Mostly Cloudy,0,2014-01-28 21:55:00
4:15 PM,-3.1,-16.6,53,29.98,10.0,West,9.2,18.4,N/A,,Overcast,260,2014-01-28 22:15:00
4:35 PM,-3.1,-16.4,53,29.97,10.0,WSW,8.1,-,N/A,,Overcast,240,2014-01-28 22:35:00
4:55 PM,-4.0,-16.8,54,29.97,10.0,WSW,3.5,-,N/A,,Scattered Clouds,240,2014-01-28 22:55:00
5:15 PM,-5.1,-16.8,57,29.97,10.0,WSW,9.2,-,N/A,,Scattered Clouds,240,2014-01-28 23:15:00
5:35 PM,-5.4,-17.0,58,29.97,10.0,WSW,5.8,-,N/A,,Scattered Clouds,240,2014-01-28 23:35:00
5:55 PM,-6.0,-17.1,59,29.96,10.0,WSW,6.9,17.3,N/A,,Scattered Clouds,250,2014-01-28 23:55:00
6:15 PM,-6.7,-17.1,61,29.96,10.0,WSW,8.1,16.1,N/A,,Clear,240,2014-01-29 00:15:00
6:35 PM,-7.1,-17.1,62,29.95,10.0,WSW,9.2,-,N/A,,Clear,240,2014-01-29 00:35:00
6:55 PM,-7.4,-17.1,63,29.95,10.0,WSW,3.5,-,N/A,,Clear,250,2014-01-29 00:55:00
7:15 PM,-7.2,-17.3,62,29.95,10.0,West,6.9,-,N/A,,Clear,260,2014-01-29 01:15:00
7:35 PM,-7.1,-17.1,62,29.95,10.0,West,9.2,18.4,N/A,,Mostly Cloudy,260,2014-01-29 01:35:00
7:55 PM,-6.7,-16.6,62,29.94,10.0,WSW,6.9,17.3,N/A,,Overcast,250,2014-01-29 01:55:00
8:15 PM,-6.7,-16.4,63,29.94,10.0,WSW,6.9,-,N/A,,Overcast,250,2014-01-29 02:15:00
8:35 PM,-6.2,-16.1,62,29.94,10.0,West,12.7,18.4,N/A,,Overcast,260,2014-01-29 02:35:00
8:55 PM,-6.0,-15.7,63,29.93,10.0,West,9.2,-,N/A,,Overcast,270,2014-01-29 02:55:00
9:15 PM,-6.2,-15.7,63,29.93,10.0,West,10.4,-,N/A,,Overcast,260,2014-01-29 03:15:00
9:35 PM,-6.3,-15.7,64,29.92,10.0,WSW,9.2,-,N/A,,Overcast,250,2014-01-29 03:35:00
9:55 PM,-6.7,-15.7,65,29.92,10.0,West,10.4,16.1,N/A,,Overcast,260,2014-01-29 03:55:00
10:15 PM,-7.2,-15.9,66,29.92,10.0,West,10.4,-,N/A,,Scattered Clouds,260,2014-01-29 04:15:00
10:35 PM,-7.6,-15.9,67,29.91,10.0,Calm,Calm,-,N/A,,Clear,0,2014-01-29 04:35:00
10:55 PM,-7.8,-15.9,68,29.90,10.0,WSW,5.8,-,N/A,,Clear,250,2014-01-29 04:55:00
11:15 PM,-8.0,-15.9,68,29.90,10.0,WSW,8.1,-,N/A,,Scattered Clouds,250,2014-01-29 05:15:00
11:35 PM,-8.0,-15.7,69,29.91,10.0,WSW,5.8,-,N/A,,Scattered Clouds,250,2014-01-29 05:35:00
11:55 PM,-8.1,-15.7,70,29.90,10.0,Calm,Calm,-,N/A,,Clear,0,2014-01-29 05:55:00